Jaffrey, NH

6:46 PM EST on December 04, 2016 (GMT -0500)
Jaffrey Airport-Silver Ranch

Weather History for KAFN - April, 2013

Change the Weather History Date:

Monday, April 22, 2013

  Actual Average Record
Temperature  
Mean Temperature 37 °F -  
Max Temperature 51 °F 55 °F 79 °F (2001)
Min Temperature 26 °F 31 °F 26 °F (2013)
Degree Days  
Heating Degree Days 28    
Moisture  
Dew Point 23 °F    
Average Humidity 58    
Maximum Humidity 81    
Minimum Humidity 33    
Precipitation  
Precipitation 0.00 in - - ()
Sea Level Pressure  
Sea Level Pressure 30.68 in    
Wind  
Wind Speed 2 mph (ESE)    
Max Wind Speed 12 mph    
Max Gust Speed 18 mph    
Visibility 10 miles    
Events      
Averages and records for this station are not official NWS values.
T = Trace of Precipitation, MM = Missing Value Source: NWS Daily Summary

Daily Weather History Graph

Daily Weather History Graph

Search for Another Location

Airport or City:

Trip Planner

Search our weather history database for the weather conditions in past years. The results will help you decide how hot, cold, wet, or windy it might be!

Date:

Astronomy

Apr. 22, 2013 Rise Set
Actual Time 5:55 AM EDT 7:38 PM EDT
Civil Twilight 5:25 AM EDT 8:08 PM EDT
Nautical Twilight 4:48 AM EDT 8:45 PM EDT
Astronomical Twilight 4:09 AM EDT 9:24 PM EDT
Moon 4:20 PM EDT (4/22) 3:53 AM EDT (4/22)
Length of Visible Light 14h 43m
Length of Day
13h 43m
Waxing Gibbous, 87% of the Moon is Illuminated
Apr 22
Waxing Gibbous
Apr 25
Full
May 2
Last Quarter
May 9
New
May 18
First Quarter

Hourly Weather History & Observations

Time (EDT) Temp. Windchill Dew Point Humidity Pressure Visibility Wind Dir Wind Speed Gust Speed Precip Events Conditions
12:52 AM 28.0 °F - 21.9 °F 78% 30.71 in 10.0 mi Calm Calm - N/A   Clear
1:52 AM 28.0 °F - 21.9 °F 78% 30.70 in 10.0 mi Calm Calm - N/A   Clear
2:52 AM 28.0 °F - 21.9 °F 78% 30.70 in 10.0 mi Calm Calm - N/A   Clear
3:52 AM 27.0 °F - 21.9 °F 81% 30.71 in 10.0 mi Calm Calm - N/A   Clear
4:52 AM 27.0 °F - 21.0 °F 78% 30.71 in 10.0 mi Calm Calm - N/A   Clear
5:52 AM 26.1 °F - 21.0 °F 81% 30.74 in 10.0 mi Calm Calm - N/A   Clear
6:52 AM 28.0 °F - 21.9 °F 78% 30.74 in 10.0 mi Calm Calm - N/A   Clear
8:52 AM 39.9 °F 37.8 °F 21.9 °F 49% 30.74 in 10.0 mi Variable 3.5 mph - N/A   Clear
9:52 AM 42.1 °F 38.4 °F 18.0 °F 38% 30.75 in 10.0 mi Variable 5.8 mph - N/A   Clear
10:52 AM 46.0 °F 41.9 °F 19.0 °F 34% 30.77 in 10.0 mi ENE 8.1 mph - N/A   Clear
11:52 AM 46.9 °F - 24.1 °F 41% 30.73 in 10.0 mi ESE 9.2 mph - N/A   Clear
12:52 PM 48.9 °F - 21.0 °F 33% 30.70 in 10.0 mi Variable 6.9 mph 18.4 mph N/A   Clear
1:52 PM 48.9 °F - 21.0 °F 33% 30.70 in 10.0 mi Variable 4.6 mph 17.3 mph N/A   Clear
2:52 PM 48.9 °F - 21.0 °F 33% 30.66 in 10.0 mi Variable 6.9 mph 16.1 mph N/A   Clear
3:52 PM 48.9 °F - 21.0 °F 33% 30.65 in 10.0 mi ESE 11.5 mph 18.4 mph N/A   Clear
4:52 PM 48.0 °F - 19.9 °F 33% 30.64 in 10.0 mi Variable 6.9 mph - N/A   Clear
5:52 PM 46.0 °F 43.9 °F 19.9 °F 35% 30.64 in 10.0 mi Variable 4.6 mph - N/A   Clear
6:52 PM 43.0 °F 38.8 °F 28.0 °F 56% 30.65 in 10.0 mi Variable 6.9 mph - N/A   Scattered Clouds
7:52 PM 39.9 °F 36.7 °F 28.0 °F 63% 30.66 in 10.0 mi Variable 4.6 mph - N/A   Overcast
8:52 PM 39.0 °F - 28.0 °F 65% 30.65 in 10.0 mi Calm Calm - N/A   Overcast
9:52 PM 37.0 °F - 27.0 °F 67% 30.65 in 10.0 mi Calm Calm - N/A   Partly Cloudy
10:52 PM 35.1 °F 32.2 °F 28.0 °F 76% 30.62 in 10.0 mi Variable 3.5 mph - N/A   Scattered Clouds
11:23 PM 35.6 °F - 28.4 °F 75% 30.57 in 10.0 mi Calm Calm - N/A   Mostly Cloudy
11:52 PM 35.1 °F 32.2 °F 28.0 °F 76% 30.61 in 10.0 mi Variable 3.5 mph - N/A   Mostly Cloudy